Topeka, KS

5:50 AM CDT on August 20, 2017 (GMT -0500)
Billard Municipal

Weather History for KTOP - October, 2013

Change the Weather History Date:

Sunday, October 27, 2013

  Actual Average Record
Temperature  
Mean Temperature 47 °F 53 °F  
Max Temperature 66 °F 64 °F 88 °F (1927)
Min Temperature 27 °F 41 °F 19 °F (1925)
Degree Days  
Heating Degree Days 18 13  
Month to date heating degree days 269 236  
Since 1 July heating degree days 283 303  
Cooling Degree Days 0 0  
Month to date cooling degree days 37 25  
Year to date cooling degree days 1586 1418  
Moisture  
Dew Point 29 °F    
Average Humidity 59    
Maximum Humidity 92    
Minimum Humidity 26    
Precipitation  
Precipitation 0.00 in 0.08 in 1.41 in (1989)
Month to date precipitation 2.01 2.70  
Year to date precipitation 29.75 32.93  
Snow  
Snow 0.00 in 0.00 in T in (1925)
Month to date snowfall T 0.2  
Year to date snowfall 24.2 11.5  
Since 1 July snowfall T 0.2  
Snow Depth 0.00 in    
Sea Level Pressure  
Sea Level Pressure 30.07 in    
Wind  
Wind Speed 4 mph (South)    
Max Wind Speed 17 mph    
Max Gust Speed 22 mph    
Visibility 8 miles    
Events Fog    
T = Trace of Precipitation, MM = Missing Value Source: NWS Daily Summary

Daily Weather History Graph

Daily Weather History Graph

Search for Another Location

Airport or City:

Trip Planner

Search our weather history database for the weather conditions in past years. The results will help you decide how hot, cold, wet, or windy it might be!

Date:

Astronomy

Oct. 27, 2013 Rise Set
Actual Time 7:44 AM CDT 6:27 PM CDT
Civil Twilight 7:17 AM CDT 6:54 PM CDT
Nautical Twilight 6:46 AM CDT 7:25 PM CDT
Astronomical Twilight 6:14 AM CDT 7:56 PM CDT
Moon 12:46 AM CDT (10/27) 2:34 PM CDT (10/27)
Length of Visible Light 11h 37m
Length of Day
10h 42m
Last Quarter, 43% of the Moon is Illuminated
Oct 27
Last Quarter
Nov 3
New
Nov 9
First Quarter
Nov 17
Full
Nov 25
Last Quarter

Hourly Weather History & Observations

Time (CDT) Temp. Dew Point Humidity Pressure Visibility Wind Dir Wind Speed Gust Speed Precip Events Conditions
12:53 AM 33.1 °F 28.9 °F 85% 30.19 in 10.0 mi Calm Calm - N/A   Clear
1:53 AM 34.0 °F 30.0 °F 85% 30.17 in 10.0 mi Calm Calm - N/A   Clear
2:53 AM 30.0 °F 28.0 °F 92% 30.16 in 9.0 mi Calm Calm - N/A   Clear
3:53 AM 30.0 °F 27.0 °F 88% 30.15 in 6.0 mi Calm Calm - N/A   Clear
4:48 AM 30.2 °F 28.4 °F 93% 30.13 in 1.2 mi Calm Calm - N/A   Clear
4:53 AM 30.9 °F 28.0 °F 89% 30.14 in 0.5 mi Calm Calm - N/A Fog Light Freezing Fog
5:03 AM 30.0 °F 27.0 °F 88% 30.13 in 1.0 mi Calm Calm - N/A   Clear
5:09 AM 30.9 °F 28.0 °F 89% 30.13 in 5.0 mi Calm Calm - N/A   Clear
5:53 AM 28.9 °F 25.0 °F 85% 30.13 in 10.0 mi Calm Calm - N/A   Clear
6:53 AM 28.0 °F 24.1 °F 85% 30.12 in 8.0 mi Calm Calm - N/A   Clear
7:45 AM 28.0 °F 24.1 °F 85% 30.10 in 10.0 mi Calm Calm - N/A   Partly Cloudy
7:53 AM 28.0 °F 24.1 °F 85% 30.12 in 8.0 mi Calm Calm - N/A   Scattered Clouds
8:08 AM 28.9 °F 25.0 °F 85% 30.10 in 0.8 mi Calm Calm - N/A   Mist
8:15 AM 28.0 °F 26.1 °F 92% 30.10 in 0.2 mi Calm Calm - N/A Fog Light Freezing Fog
8:22 AM 28.0 °F 26.1 °F 92% 30.10 in 0.2 mi Calm Calm - N/A Fog Light Freezing Fog
8:42 AM 30.0 °F 28.0 °F 92% 30.10 in 1.0 mi Calm Calm - N/A   Mist
8:45 AM 30.0 °F 28.9 °F 96% 30.10 in 2.5 mi Calm Calm - N/A   Partly Cloudy
8:53 AM 30.9 °F 28.9 °F 92% 30.12 in 7.0 mi Calm Calm - N/A   Clear
9:53 AM 42.1 °F 34.0 °F 73% 30.11 in 10.0 mi Calm Calm - N/A   Clear
10:53 AM 52.0 °F 32.0 °F 47% 30.10 in 10.0 mi SW 9.2 mph - N/A   Clear
11:53 AM 57.0 °F 30.9 °F 37% 30.08 in 10.0 mi South 6.9 mph - N/A   Clear
12:53 PM 61.0 °F 30.0 °F 31% 30.05 in 10.0 mi South 10.4 mph - N/A   Clear
1:53 PM 64.0 °F 30.0 °F 28% 30.01 in 10.0 mi South 13.8 mph 17.3 mph N/A   Clear
2:53 PM 66.0 °F 30.9 °F 27% 29.97 in 10.0 mi South 10.4 mph - N/A   Clear
3:53 PM 66.0 °F 32.0 °F 28% 29.96 in 10.0 mi South 12.7 mph - N/A   Clear
4:53 PM 66.0 °F 32.0 °F 28% 29.94 in 10.0 mi South 12.7 mph - N/A   Clear
5:53 PM 64.0 °F 30.9 °F 29% 29.94 in 10.0 mi South 10.4 mph - N/A   Clear
6:53 PM 55.0 °F 30.9 °F 40% 29.95 in 10.0 mi SSE 4.6 mph - N/A   Clear
7:53 PM 54.0 °F 32.0 °F 43% 29.95 in 10.0 mi SSE 4.6 mph - N/A   Clear
8:53 PM 48.9 °F 30.9 °F 50% 29.96 in 10.0 mi SE 3.5 mph - N/A   Clear
9:53 PM 52.0 °F 30.9 °F 45% 29.97 in 10.0 mi South 3.5 mph - N/A   Clear
10:53 PM 50.0 °F 30.9 °F 48% 29.98 in 10.0 mi Calm Calm - N/A   Clear
11:53 PM 45.0 °F 32.0 °F 60% 29.99 in 10.0 mi Calm Calm - N/A   Clear